Time,TemperatureF,DewpointF,PressureIn,WindDirection,WindDirectionDegrees,WindSpeedMPH,WindSpeedGustMPH,Humidity,HourlyPrecipIn,Conditions,Clouds,dailyrainin,SoftwareType,DateUTC
2013-02-24 00:00:00,35.9,35.4,29.83,North,8,0.0,3.0,98,0.00,,,0.11,WeatherCatV1.13B119,2013-02-24 05:00:00,
2013-02-24 00:05:00,35.9,35.4,29.83,North,356,1.0,1.0,98,0.00,,,0.00,WeatherCatV1.13B119,2013-02-24 05:05:00,
2013-02-24 00:10:00,35.9,35.4,29.83,North,6,1.0,2.0,98,0.00,,,0.01,WeatherCatV1.13B119,2013-02-24 05:10:00,
2013-02-24 00:15:00,35.8,35.3,29.83,NE,42,0.0,1.0,98,0.00,,,0.01,WeatherCatV1.13B119,2013-02-24 05:15:00,
2013-02-24 00:16:00,35.8,35.3,29.83,NE,43,0.0,1.0,98,0.00,,,0.01,WeatherCatV1.13B119,2013-02-24 05:16:00,
2013-02-24 00:21:00,35.8,35.3,29.83,NE,42,0.0,2.0,98,0.00,,,0.01,WeatherCatV1.13B119,2013-02-24 05:21:00,
2013-02-24 00:26:00,35.8,35.3,29.83,NE,42,0.0,2.0,98,0.00,,,0.01,WeatherCatV1.13B119,2013-02-24 05:26:00,
2013-02-24 00:31:00,35.8,35.3,29.83,NE,42,1.0,1.0,98,0.00,,,0.01,WeatherCatV1.13B119,2013-02-24 05:31:00,
2013-02-24 00:36:00,35.8,35.3,29.83,NE,35,1.0,1.0,98,0.00,,,0.01,WeatherCatV1.13B119,2013-02-24 05:36:00,
2013-02-24 00:41:00,35.8,35.3,29.83,NE,35,1.0,3.0,98,0.00,,,0.01,WeatherCatV1.13B119,2013-02-24 05:41:00,
2013-02-24 00:46:00,35.8,35.3,29.83,North,350,1.0,2.0,98,0.00,,,0.01,WeatherCatV1.13B119,2013-02-24 05:46:00,
2013-02-24 00:51:00,35.8,35.3,29.83,North,350,1.0,2.0,98,0.00,,,0.01,WeatherCatV1.13B119,2013-02-24 05:51:00,
2013-02-24 00:56:00,35.8,35.3,29.83,North,350,1.0,1.0,98,0.00,,,0.01,WeatherCatV1.13B119,2013-02-24 05:56:00,
2013-02-24 01:01:00,35.8,35.3,29.83,North,350,1.0,2.0,98,0.00,,,0.01,WeatherCatV1.13B119,2013-02-24 06:01:00,
2013-02-24 01:06:00,35.8,35.3,29.83,North,350,0.0,2.0,98,0.00,,,0.01,WeatherCatV1.13B119,2013-02-24 06:06:00,
2013-02-24 01:11:00,35.8,35.3,29.83,North,350,0.0,2.0,98,0.00,,,0.01,WeatherCatV1.13B119,2013-02-24 06:11:00,
2013-02-24 01:16:00,35.8,35.3,29.83,North,350,0.0,1.0,98,0.00,,,0.01,WeatherCatV1.13B119,2013-02-24 06:16:00,
2013-02-24 01:21:00,35.9,35.4,29.83,North,350,0.0,2.0,98,0.00,,,0.01,WeatherCatV1.13B119,2013-02-24 06:21:00,
2013-02-24 01:26:00,35.9,35.4,29.83,North,350,1.0,1.0,98,0.00,,,0.01,WeatherCatV1.13B119,2013-02-24 06:26:00,
2013-02-24 01:31:00,35.9,35.4,29.83,North,350,0.0,0.0,98,0.00,,,0.01,WeatherCatV1.13B119,2013-02-24 06:31:00,
2013-02-24 01:36:00,36.0,35.5,29.82,North,350,1.0,2.0,98,0.00,,,0.01,WeatherCatV1.13B119,2013-02-24 06:36:00,
2013-02-24 01:41:00,36.0,35.5,29.83,North,350,2.0,2.0,98,0.00,,,0.01,WeatherCatV1.13B119,2013-02-24 06:41:00,
2013-02-24 01:46:00,36.0,35.5,29.83,North,7,1.0,2.0,98,0.00,,,0.01,WeatherCatV1.13B119,2013-02-24 06:46:00,
2013-02-24 01:51:00,36.0,35.5,29.82,North,7,0.0,1.0,98,0.00,,,0.01,WeatherCatV1.13B119,2013-02-24 06:51:00,
2013-02-24 01:56:00,36.0,35.5,29.82,North,7,1.0,1.0,98,0.00,,,0.01,WeatherCatV1.13B119,2013-02-24 06:56:00,
2013-02-24 02:01:00,36.1,35.6,29.82,North,7,0.0,2.0,98,0.00,,,0.01,WeatherCatV1.13B119,2013-02-24 07:01:00,
2013-02-24 02:06:00,36.1,35.6,29.82,North,7,0.0,1.0,98,0.00,,,0.01,WeatherCatV1.13B119,2013-02-24 07:06:00,
2013-02-24 02:11:00,36.1,35.6,29.82,North,7,2.0,2.0,98,0.00,,,0.01,WeatherCatV1.13B119,2013-02-24 07:11:00,
2013-02-24 02:16:00,36.1,35.6,29.82,North,8,2.0,2.0,98,0.00,,,0.02,WeatherCatV1.13B119,2013-02-24 07:16:00,
2013-02-24 02:21:00,36.1,35.6,29.82,North,8,0.0,1.0,98,0.00,,,0.02,WeatherCatV1.13B119,2013-02-24 07:21:00,
2013-02-24 02:26:00,36.1,35.6,29.82,North,8,0.0,1.0,98,0.00,,,0.02,WeatherCatV1.13B119,2013-02-24 07:26:00,
2013-02-24 02:31:00,36.1,35.6,29.81,North,8,1.0,1.0,98,0.00,,,0.02,WeatherCatV1.13B119,2013-02-24 07:31:00,
2013-02-24 02:36:00,36.1,35.6,29.81,North,8,1.0,1.0,98,0.00,,,0.02,WeatherCatV1.13B119,2013-02-24 07:36:00,
2013-02-24 02:41:00,36.2,35.7,29.81,North,8,1.0,3.0,98,0.00,,,0.02,WeatherCatV1.13B119,2013-02-24 07:41:00,
2013-02-24 02:46:00,36.2,35.7,29.81,North,8,0.0,1.0,98,0.00,,,0.02,WeatherCatV1.13B119,2013-02-24 07:46:00,
2013-02-24 02:51:00,36.2,35.7,29.81,North,8,0.0,1.0,98,0.00,,,0.02,WeatherCatV1.13B119,2013-02-24 07:51:00,
2013-02-24 02:56:00,36.3,35.8,29.81,North,7,0.0,1.0,98,0.00,,,0.03,WeatherCatV1.13B119,2013-02-24 07:56:00,
2013-02-24 03:01:00,36.3,35.8,29.81,North,7,0.0,1.0,98,0.00,,,0.03,WeatherCatV1.13B119,2013-02-24 08:01:00,
2013-02-24 03:06:00,36.3,36.0,29.81,North,7,1.0,1.0,99,0.00,,,0.03,WeatherCatV1.13B119,2013-02-24 08:06:00,
2013-02-24 03:11:00,36.4,36.1,29.81,North,7,0.0,2.0,99,0.00,,,0.03,WeatherCatV1.13B119,2013-02-24 08:11:00,
2013-02-24 03:16:00,36.4,36.1,29.81,North,7,0.0,0.0,99,0.00,,,0.03,WeatherCatV1.13B119,2013-02-24 08:16:00,
2013-02-24 03:21:00,36.4,36.1,29.81,North,7,1.0,3.0,99,0.00,,,0.03,WeatherCatV1.13B119,2013-02-24 08:21:00,
2013-02-24 03:26:00,36.5,36.2,29.81,North,7,1.0,1.0,99,0.00,,,0.03,WeatherCatV1.13B119,2013-02-24 08:26:00,
2013-02-24 03:31:00,36.5,36.2,29.81,North,7,0.0,1.0,99,0.00,,,0.03,WeatherCatV1.13B119,2013-02-24 08:31:00,
2013-02-24 03:36:00,36.5,36.2,29.81,North,7,0.0,1.0,99,0.00,,,0.03,WeatherCatV1.13B119,2013-02-24 08:36:00,
2013-02-24 03:41:00,36.5,36.2,29.81,North,7,0.0,1.0,99,0.00,,,0.03,WeatherCatV1.13B119,2013-02-24 08:41:00,
2013-02-24 03:46:00,36.6,36.3,29.82,North,7,0.0,1.0,99,0.00,,,0.03,WeatherCatV1.13B119,2013-02-24 08:46:00,
2013-02-24 03:51:00,36.6,36.3,29.82,North,7,1.0,1.0,99,0.00,,,0.03,WeatherCatV1.13B119,2013-02-24 08:51:00,
2013-02-24 03:56:00,36.6,36.3,29.82,North,7,0.0,0.0,99,0.00,,,0.03,WeatherCatV1.13B119,2013-02-24 08:56:00,
2013-02-24 04:01:00,36.6,36.3,29.82,North,7,0.0,3.0,99,0.00,,,0.03,WeatherCatV1.13B119,2013-02-24 09:01:00,
2013-02-24 04:06:00,36.5,36.2,29.82,North,7,1.0,1.0,99,0.00,,,0.03,WeatherCatV1.13B119,2013-02-24 09:06:00,
2013-02-24 04:11:00,36.5,36.2,29.82,North,7,0.0,1.0,99,0.00,,,0.03,WeatherCatV1.13B119,2013-02-24 09:11:00,
2013-02-24 04:16:00,36.5,36.2,29.82,North,7,1.0,1.0,99,0.00,,,0.03,WeatherCatV1.13B119,2013-02-24 09:16:00,
2013-02-24 04:21:00,36.4,36.1,29.81,North,7,0.0,1.0,99,0.00,,,0.03,WeatherCatV1.13B119,2013-02-24 09:21:00,
2013-02-24 04:26:00,36.3,36.0,29.81,North,7,0.0,1.0,99,0.00,,,0.03,WeatherCatV1.13B119,2013-02-24 09:26:00,
2013-02-24 04:31:00,36.2,35.7,29.81,North,7,0.0,1.0,98,0.00,,,0.03,WeatherCatV1.13B119,2013-02-24 09:31:00,
2013-02-24 04:36:00,36.2,35.7,29.80,North,7,0.0,0.0,98,0.00,,,0.03,WeatherCatV1.13B119,2013-02-24 09:36:00,
2013-02-24 04:41:00,36.1,35.6,29.79,North,7,0.0,0.0,98,0.00,,,0.03,WeatherCatV1.13B119,2013-02-24 09:41:00,
2013-02-24 04:46:00,36.1,35.6,29.79,North,7,0.0,1.0,98,0.00,,,0.03,WeatherCatV1.13B119,2013-02-24 09:46:00,
2013-02-24 04:51:00,36.0,35.5,29.78,North,7,0.0,1.0,98,0.00,,,0.03,WeatherCatV1.13B119,2013-02-24 09:51:00,
2013-02-24 04:56:00,35.9,35.4,29.78,North,7,0.0,1.0,98,0.00,,,0.03,WeatherCatV1.13B119,2013-02-24 09:56:00,
2013-02-24 05:01:00,35.9,35.4,29.78,North,7,0.0,1.0,98,0.00,,,0.03,WeatherCatV1.13B119,2013-02-24 10:01:00,
2013-02-24 05:06:00,35.9,35.4,29.78,North,7,0.0,1.0,98,0.00,,,0.03,WeatherCatV1.13B119,2013-02-24 10:06:00,
2013-02-24 05:11:00,36.0,35.5,29.79,North,7,0.0,1.0,98,0.00,,,0.03,WeatherCatV1.13B119,2013-02-24 10:11:00,
2013-02-24 05:16:00,36.0,35.7,29.79,North,7,0.0,1.0,99,0.00,,,0.03,WeatherCatV1.13B119,2013-02-24 10:16:00,
2013-02-24 05:21:00,36.0,35.7,29.79,North,7,0.0,1.0,99,0.00,,,0.03,WeatherCatV1.13B119,2013-02-24 10:21:00,
2013-02-24 05:26:00,36.0,35.5,29.79,North,7,0.0,1.0,98,0.00,,,0.03,WeatherCatV1.13B119,2013-02-24 10:26:00,
2013-02-24 05:31:00,35.9,35.6,29.79,North,7,0.0,1.0,99,0.00,,,0.03,WeatherCatV1.13B119,2013-02-24 10:31:00,
2013-02-24 05:36:00,35.8,35.3,29.78,North,7,0.0,3.0,98,0.00,,,0.03,WeatherCatV1.13B119,2013-02-24 10:36:00,
2013-02-24 05:41:00,35.8,35.5,29.78,North,7,1.0,1.0,99,0.00,,,0.03,WeatherCatV1.13B119,2013-02-24 10:41:00,
2013-02-24 05:46:00,35.8,35.5,29.78,North,7,1.0,1.0,99,0.00,,,0.03,WeatherCatV1.13B119,2013-02-24 10:46:00,
2013-02-24 05:51:00,35.7,35.2,29.79,North,7,0.0,2.0,98,0.00,,,0.03,WeatherCatV1.13B119,2013-02-24 10:51:00,
2013-02-24 05:56:00,35.8,35.3,29.79,North,7,1.0,3.0,98,0.00,,,0.03,WeatherCatV1.13B119,2013-02-24 10:56:00,
2013-02-24 06:01:00,35.8,35.3,29.78,North,7,1.0,2.0,98,0.00,,,0.03,WeatherCatV1.13B119,2013-02-24 11:01:00,
2013-02-24 06:06:00,35.8,35.3,29.78,North,7,1.0,1.0,98,0.00,,,0.03,WeatherCatV1.13B119,2013-02-24 11:06:00,
2013-02-24 06:11:00,35.7,35.2,29.78,North,7,2.0,2.0,98,0.00,,,0.03,WeatherCatV1.13B119,2013-02-24 11:11:00,
2013-02-24 06:16:00,35.7,35.2,29.78,NNE,26,1.0,2.0,98,0.00,,,0.03,WeatherCatV1.13B119,2013-02-24 11:16:00,
2013-02-24 06:21:00,35.7,35.2,29.78,NNE,26,1.0,1.0,98,0.00,,,0.03,WeatherCatV1.13B119,2013-02-24 11:21:00,
2013-02-24 06:26:00,35.7,35.2,29.78,NNE,26,1.0,3.0,98,0.00,,,0.03,WeatherCatV1.13B119,2013-02-24 11:26:00,
2013-02-24 06:31:00,35.7,35.2,29.78,NNE,27,1.0,1.0,98,0.00,,,0.03,WeatherCatV1.13B119,2013-02-24 11:31:00,
2013-02-24 06:36:00,35.6,35.1,29.78,NNE,26,0.0,0.0,98,0.00,,,0.03,WeatherCatV1.13B119,2013-02-24 11:36:00,
2013-02-24 06:41:00,35.6,35.1,29.79,NNE,26,0.0,0.0,98,0.00,,,0.03,WeatherCatV1.13B119,2013-02-24 11:41:00,
2013-02-24 06:46:00,35.6,35.1,29.79,NNE,27,0.0,1.0,98,0.00,,,0.03,WeatherCatV1.13B119,2013-02-24 11:46:00,
2013-02-24 06:51:00,35.5,35.2,29.79,NNE,26,0.0,1.0,99,0.00,,,0.03,WeatherCatV1.13B119,2013-02-24 11:51:00,
2013-02-24 06:56:00,35.5,35.0,29.79,NNE,26,0.0,1.0,98,0.00,,,0.03,WeatherCatV1.13B119,2013-02-24 11:56:00,
2013-02-24 07:01:00,35.4,34.9,29.79,NNE,26,0.0,0.0,98,0.00,,,0.03,WeatherCatV1.13B119,2013-02-24 12:01:00,
2013-02-24 07:06:00,35.4,34.9,29.79,NNE,26,0.0,1.0,98,0.00,,,0.03,WeatherCatV1.13B119,2013-02-24 12:06:00,
2013-02-24 07:11:00,35.3,34.8,29.79,NNE,26,0.0,1.0,98,0.00,,,0.03,WeatherCatV1.13B119,2013-02-24 12:11:00,
2013-02-24 07:16:00,35.3,35.0,29.79,NNE,26,0.0,0.0,99,0.00,,,0.03,WeatherCatV1.13B119,2013-02-24 12:16:00,
2013-02-24 07:21:00,35.4,35.1,29.79,NNE,27,1.0,1.0,99,0.00,,,0.03,WeatherCatV1.13B119,2013-02-24 12:21:00,
2013-02-24 07:26:00,35.5,35.2,29.79,NNE,26,0.0,1.0,99,0.00,,,0.03,WeatherCatV1.13B119,2013-02-24 12:26:00,
2013-02-24 07:31:00,35.5,35.2,29.79,NNE,27,0.0,0.0,99,0.00,,,0.03,WeatherCatV1.13B119,2013-02-24 12:31:00,
2013-02-24 07:34:00,35.6,35.3,29.79,NNE,26,0.0,1.0,99,0.00,,,0.03,WeatherCatV1.13B119,2013-02-24 12:34:00,
2013-02-24 07:35:00,35.6,35.3,29.78,NNE,27,0.0,1.0,99,0.00,,,0.03,WeatherCatV1.13B119,2013-02-24 12:35:00,
2013-02-24 07:40:00,35.7,35.4,29.78,NNE,26,0.0,1.0,99,0.00,,,0.03,WeatherCatV1.13B119,2013-02-24 12:40:00,
2013-02-24 07:45:00,35.9,35.6,29.79,NNE,26,1.0,2.0,99,0.00,,,0.03,WeatherCatV1.13B119,2013-02-24 12:45:00,
2013-02-24 07:50:00,36.1,35.8,29.78,NNE,26,0.0,1.0,99,0.00,,,0.03,WeatherCatV1.13B119,2013-02-24 12:50:00,
2013-02-24 07:55:00,36.2,35.9,29.78,NNE,26,0.0,0.0,99,0.00,,,0.03,WeatherCatV1.13B119,2013-02-24 12:55:00,
2013-02-24 08:00:00,36.4,36.1,29.78,NNE,26,1.0,1.0,99,0.00,,,0.03,WeatherCatV1.13B119,2013-02-24 13:00:00,
2013-02-24 08:05:00,36.6,36.3,29.78,NNE,26,0.0,1.0,99,0.00,,,0.03,WeatherCatV1.13B119,2013-02-24 13:05:00,
2013-02-24 08:10:00,36.8,36.5,29.78,NNE,27,1.0,2.0,99,0.00,,,0.03,WeatherCatV1.13B119,2013-02-24 13:10:00,
2013-02-24 08:15:00,36.9,36.6,29.78,NNE,26,0.0,1.0,99,0.00,,,0.03,WeatherCatV1.13B119,2013-02-24 13:15:00,
2013-02-24 08:20:00,37.0,36.7,29.78,NNE,26,0.0,0.0,99,0.00,,,0.03,WeatherCatV1.13B119,2013-02-24 13:20:00,
2013-02-24 08:25:00,37.1,36.8,29.79,NNE,27,0.0,1.0,99,0.00,,,0.03,WeatherCatV1.13B119,2013-02-24 13:25:00,
2013-02-24 08:30:00,37.3,37.0,29.79,NNE,26,0.0,2.0,99,0.00,,,0.03,WeatherCatV1.13B119,2013-02-24 13:30:00,
2013-02-24 08:35:00,37.5,37.0,29.79,NNE,26,0.0,2.0,98,0.00,,,0.03,WeatherCatV1.13B119,2013-02-24 13:35:00,
2013-02-24 08:40:00,37.5,37.0,29.79,NNE,26,1.0,1.0,98,0.00,,,0.03,WeatherCatV1.13B119,2013-02-24 13:40:00,
2013-02-24 08:45:00,37.7,37.2,29.80,NNE,26,1.0,2.0,98,0.00,,,0.03,WeatherCatV1.13B119,2013-02-24 13:45:00,
2013-02-24 08:50:00,38.0,37.5,29.80,NNE,26,0.0,2.0,98,0.00,,,0.03,WeatherCatV1.13B119,2013-02-24 13:50:00,
2013-02-24 08:55:00,38.3,37.8,29.80,North,352,1.0,3.0,98,0.00,,,0.03,WeatherCatV1.13B119,2013-02-24 13:55:00,
2013-02-24 09:00:00,38.5,38.0,29.80,North,352,1.0,2.0,98,0.00,,,0.03,WeatherCatV1.13B119,2013-02-24 14:00:00,
2013-02-24 09:05:00,38.7,37.9,29.79,North,352,1.0,1.0,97,0.00,,,0.03,WeatherCatV1.13B119,2013-02-24 14:05:00,
2013-02-24 09:10:00,38.8,38.0,29.80,West,277,2.0,2.0,97,0.00,,,0.03,WeatherCatV1.13B119,2013-02-24 14:10:00,
2013-02-24 09:15:00,39.0,38.2,29.80,North,6,0.0,1.0,97,0.00,,,0.03,WeatherCatV1.13B119,2013-02-24 14:15:00,
2013-02-24 09:20:00,39.3,38.3,29.79,North,7,2.0,3.0,96,0.00,,,0.03,WeatherCatV1.13B119,2013-02-24 14:20:00,
2013-02-24 09:25:00,39.6,38.6,29.79,NNW,346,3.0,6.0,96,0.00,,,0.03,WeatherCatV1.13B119,2013-02-24 14:25:00,
2013-02-24 09:30:00,39.8,38.5,29.79,NW,321,0.0,2.0,95,0.00,,,0.03,WeatherCatV1.13B119,2013-02-24 14:30:00,
2013-02-24 09:35:00,40.0,38.4,29.79,NW,315,1.0,3.0,94,0.00,,,0.03,WeatherCatV1.13B119,2013-02-24 14:35:00,
2013-02-24 09:40:00,40.1,38.5,29.79,NNW,348,3.0,5.0,94,0.00,,,0.03,WeatherCatV1.13B119,2013-02-24 14:40:00,
2013-02-24 09:45:00,40.1,38.0,29.79,NNW,335,2.0,4.0,92,0.00,,,0.03,WeatherCatV1.13B119,2013-02-24 14:45:00,
2013-02-24 09:50:00,40.1,38.0,29.79,NW,313,0.0,3.0,92,0.00,,,0.03,WeatherCatV1.13B119,2013-02-24 14:50:00,
2013-02-24 09:55:00,40.2,38.1,29.79,NNW,346,0.0,2.0,92,0.00,,,0.03,WeatherCatV1.13B119,2013-02-24 14:55:00,
2013-02-24 10:00:00,40.4,38.3,29.79,North,352,0.0,2.0,92,0.00,,,0.03,WeatherCatV1.13B119,2013-02-24 15:00:00,
2013-02-24 10:05:00,40.5,38.1,29.79,NNW,340,2.0,2.0,91,0.00,,,0.03,WeatherCatV1.13B119,2013-02-24 15:05:00,
2013-02-24 10:10:00,40.6,37.9,29.79,NW,308,0.0,3.0,90,0.00,,,0.03,WeatherCatV1.13B119,2013-02-24 15:10:00,
2013-02-24 10:15:00,40.7,38.0,29.79,West,269,2.0,4.0,90,0.00,,,0.03,WeatherCatV1.13B119,2013-02-24 15:15:00,
2013-02-24 10:20:00,40.9,38.2,29.79,WNW,294,2.0,3.0,90,0.00,,,0.03,WeatherCatV1.13B119,2013-02-24 15:20:00,
2013-02-24 10:25:00,41.1,38.4,29.79,North,354,3.0,3.0,90,0.00,,,0.03,WeatherCatV1.13B119,2013-02-24 15:25:00,
2013-02-24 10:30:00,41.4,38.7,29.79,WNW,294,0.0,2.0,90,0.00,,,0.03,WeatherCatV1.13B119,2013-02-24 15:30:00,
2013-02-24 10:35:00,41.9,38.9,29.78,North,350,2.0,4.0,89,0.00,,,0.03,WeatherCatV1.13B119,2013-02-24 15:35:00,
2013-02-24 10:40:00,42.4,39.1,29.78,North,351,2.0,4.0,88,0.00,,,0.03,WeatherCatV1.13B119,2013-02-24 15:40:00,
2013-02-24 10:45:00,42.8,39.2,29.79,West,278,3.0,4.0,87,0.00,,,0.03,WeatherCatV1.13B119,2013-02-24 15:45:00,
2013-02-24 10:50:00,43.0,39.1,29.78,WNW,289,1.0,3.0,86,0.00,,,0.03,WeatherCatV1.13B119,2013-02-24 15:50:00,
2013-02-24 10:55:00,43.0,38.8,29.78,NW,321,0.0,2.0,85,0.00,,,0.03,WeatherCatV1.13B119,2013-02-24 15:55:00,
2013-02-24 11:00:00,43.1,38.9,29.79,NW,317,1.0,2.0,85,0.00,,,0.03,WeatherCatV1.13B119,2013-02-24 16:00:00,
2013-02-24 11:05:00,43.0,38.5,29.79,NNW,348,2.0,4.0,84,0.00,,,0.03,WeatherCatV1.13B119,2013-02-24 16:05:00,
2013-02-24 11:10:00,42.7,38.2,29.79,North,10,2.0,5.0,84,0.00,,,0.03,WeatherCatV1.13B119,2013-02-24 16:10:00,
2013-02-24 11:15:00,42.6,37.8,29.79,North,354,3.0,9.0,83,0.00,,,0.03,WeatherCatV1.13B119,2013-02-24 16:15:00,
2013-02-24 11:20:00,42.4,37.6,29.80,NW,317,1.0,3.0,83,0.00,,,0.03,WeatherCatV1.13B119,2013-02-24 16:20:00,
2013-02-24 11:25:00,42.2,37.4,29.80,North,351,2.0,7.0,83,0.00,,,0.03,WeatherCatV1.13B119,2013-02-24 16:25:00,
2013-02-24 11:30:00,42.2,37.7,29.80,NNW,335,2.0,3.0,84,0.00,,,0.03,WeatherCatV1.13B119,2013-02-24 16:30:00,
2013-02-24 11:35:00,42.2,37.4,29.80,North,350,3.0,4.0,83,0.00,,,0.03,WeatherCatV1.13B119,2013-02-24 16:35:00,
2013-02-24 11:40:00,42.4,37.6,29.80,NNW,340,3.0,4.0,83,0.00,,,0.03,WeatherCatV1.13B119,2013-02-24 16:40:00,
2013-02-24 11:45:00,42.7,37.6,29.79,NNE,13,5.0,5.0,82,0.00,,,0.03,WeatherCatV1.13B119,2013-02-24 16:45:00,
2013-02-24 11:50:00,42.9,37.5,29.79,North,11,3.0,6.0,81,0.00,,,0.03,WeatherCatV1.13B119,2013-02-24 16:50:00,
2013-02-24 11:55:00,43.2,37.8,29.79,North,351,2.0,3.0,81,0.00,,,0.03,WeatherCatV1.13B119,2013-02-24 16:55:00,
2013-02-24 12:00:00,43.5,37.7,29.78,NE,35,2.0,2.0,80,0.00,,,0.03,WeatherCatV1.13B119,2013-02-24 17:00:00,
2013-02-24 12:05:00,44.1,38.0,29.78,West,269,1.0,3.0,79,0.00,,,0.03,WeatherCatV1.13B119,2013-02-24 17:05:00,
2013-02-24 12:10:00,44.6,37.8,29.78,NNW,336,0.0,2.0,77,0.00,,,0.03,WeatherCatV1.13B119,2013-02-24 17:10:00,
2013-02-24 12:15:00,45.2,37.8,29.78,WNW,289,1.0,3.0,75,0.00,,,0.03,WeatherCatV1.13B119,2013-02-24 17:15:00,
2013-02-24 12:20:00,45.6,37.5,29.77,NW,307,3.0,4.0,73,0.00,,,0.03,WeatherCatV1.13B119,2013-02-24 17:20:00,
2013-02-24 12:25:00,45.7,37.9,29.77,NNW,345,1.0,1.0,74,0.00,,,0.03,WeatherCatV1.13B119,2013-02-24 17:25:00,
2013-02-24 12:30:00,45.8,37.3,29.77,WNW,294,1.0,2.0,72,0.00,,,0.03,WeatherCatV1.13B119,2013-02-24 17:30:00,
2013-02-24 12:35:00,45.8,37.6,29.77,North,355,1.0,2.0,73,0.00,,,0.03,WeatherCatV1.13B119,2013-02-24 17:35:00,
2013-02-24 12:40:00,45.6,37.5,29.77,North,3,1.0,3.0,73,0.00,,,0.03,WeatherCatV1.13B119,2013-02-24 17:40:00,
2013-02-24 12:45:00,45.4,37.6,29.77,North,3,0.0,3.0,74,0.00,,,0.03,WeatherCatV1.13B119,2013-02-24 17:45:00,
2013-02-24 12:50:00,45.3,36.5,29.77,WNW,289,1.0,4.0,71,0.00,,,0.03,WeatherCatV1.13B119,2013-02-24 17:50:00,
2013-02-24 12:55:00,45.1,36.3,29.77,NNW,340,0.0,3.0,71,0.00,,,0.03,WeatherCatV1.13B119,2013-02-24 17:55:00,
2013-02-24 13:00:00,45.2,36.7,29.77,NNW,346,0.0,2.0,72,0.00,,,0.03,WeatherCatV1.13B119,2013-02-24 18:00:00,
2013-02-24 13:05:00,45.5,35.9,29.76,NNW,334,3.0,5.0,69,0.00,,,0.03,WeatherCatV1.13B119,2013-02-24 18:05:00,
2013-02-24 13:10:00,45.7,35.8,29.76,NW,315,1.0,5.0,68,0.00,,,0.03,WeatherCatV1.13B119,2013-02-24 18:10:00,
2013-02-24 13:15:00,46.1,35.8,29.77,NNW,327,2.0,7.0,67,0.00,,,0.03,WeatherCatV1.13B119,2013-02-24 18:15:00,
2013-02-24 13:20:00,46.8,35.7,29.76,West,271,3.0,4.0,65,0.00,,,0.03,WeatherCatV1.13B119,2013-02-24 18:20:00,
2013-02-24 13:25:00,47.2,35.7,29.76,West,277,3.0,4.0,64,0.00,,,0.03,WeatherCatV1.13B119,2013-02-24 18:25:00,
2013-02-24 13:30:00,47.4,35.4,29.76,WNW,301,3.0,3.0,63,0.00,,,0.03,WeatherCatV1.13B119,2013-02-24 18:30:00,
2013-02-24 13:35:00,47.1,34.8,29.76,NNW,339,2.0,4.0,62,0.00,,,0.03,WeatherCatV1.13B119,2013-02-24 18:35:00,
2013-02-24 13:40:00,46.7,34.4,29.76,North,358,2.0,2.0,62,0.00,,,0.03,WeatherCatV1.13B119,2013-02-24 18:40:00,
2013-02-24 13:45:00,46.5,34.6,29.76,North,4,1.0,4.0,63,0.00,,,0.03,WeatherCatV1.13B119,2013-02-24 18:45:00,
2013-02-24 13:50:00,46.5,35.0,29.76,North,358,2.0,3.0,64,0.00,,,0.03,WeatherCatV1.13B119,2013-02-24 18:50:00,
2013-02-24 13:55:00,46.6,34.7,29.76,North,7,3.0,4.0,63,0.00,,,0.03,WeatherCatV1.13B119,2013-02-24 18:55:00,
2013-02-24 14:00:00,46.5,33.8,29.76,North,352,1.0,7.0,61,0.00,,,0.03,WeatherCatV1.13B119,2013-02-24 19:00:00,
2013-02-24 14:05:00,46.5,33.0,29.76,NW,314,3.0,5.0,59,0.00,,,0.03,WeatherCatV1.13B119,2013-02-24 19:05:00,
2013-02-24 14:10:00,46.5,33.0,29.76,NW,305,1.0,4.0,59,0.00,,,0.03,WeatherCatV1.13B119,2013-02-24 19:10:00,
2013-02-24 14:15:00,46.4,32.4,29.76,North,355,2.0,5.0,58,0.00,,,0.03,WeatherCatV1.13B119,2013-02-24 19:15:00,
2013-02-24 14:20:00,46.3,32.3,29.76,North,358,2.0,5.0,58,0.00,,,0.03,WeatherCatV1.13B119,2013-02-24 19:20:00,
2013-02-24 14:25:00,46.2,31.8,29.76,WSW,254,4.0,5.0,57,0.00,,,0.03,WeatherCatV1.13B119,2013-02-24 19:25:00,
2013-02-24 14:30:00,46.0,31.6,29.77,West,265,3.0,6.0,57,0.00,,,0.03,WeatherCatV1.13B119,2013-02-24 19:30:00,
2013-02-24 14:35:00,45.8,31.4,29.77,North,356,7.0,7.0,57,0.00,,,0.03,WeatherCatV1.13B119,2013-02-24 19:35:00,
2013-02-24 14:40:00,45.6,31.3,29.77,NNW,338,2.0,5.0,57,0.00,,,0.03,WeatherCatV1.13B119,2013-02-24 19:40:00,
2013-02-24 14:45:00,45.4,31.1,29.77,West,260,1.0,4.0,57,0.00,,,0.03,WeatherCatV1.13B119,2013-02-24 19:45:00,
2013-02-24 14:50:00,45.2,30.9,29.77,WNW,300,3.0,4.0,57,0.00,,,0.03,WeatherCatV1.13B119,2013-02-24 19:50:00,
2013-02-24 14:55:00,44.9,30.6,29.77,West,275,6.0,7.0,57,0.00,,,0.03,WeatherCatV1.13B119,2013-02-24 19:55:00,
2013-02-24 15:00:00,44.6,30.7,29.77,NNW,329,2.0,6.0,58,0.00,,,0.03,WeatherCatV1.13B119,2013-02-24 20:00:00,
2013-02-24 15:05:00,44.3,30.0,29.78,North,352,4.0,8.0,57,0.00,,,0.03,WeatherCatV1.13B119,2013-02-24 20:05:00,
2013-02-24 15:10:00,44.1,29.9,29.77,SW,234,2.0,4.0,57,0.00,,,0.03,WeatherCatV1.13B119,2013-02-24 20:10:00,
2013-02-24 15:15:00,43.8,30.0,29.78,West,269,2.0,5.0,58,0.00,,,0.03,WeatherCatV1.13B119,2013-02-24 20:15:00,
2013-02-24 15:20:00,43.6,29.8,29.78,NNW,338,4.0,4.0,58,0.00,,,0.03,WeatherCatV1.13B119,2013-02-24 20:20:00,
2013-02-24 15:25:00,43.6,30.2,29.78,NNW,327,1.0,8.0,59,0.00,,,0.03,WeatherCatV1.13B119,2013-02-24 20:25:00,
2013-02-24 15:30:00,43.5,30.1,29.79,NNW,345,6.0,7.0,59,0.00,,,0.03,WeatherCatV1.13B119,2013-02-24 20:30:00,
2013-02-24 15:35:00,43.3,29.9,29.79,WNW,284,4.0,5.0,59,0.00,,,0.03,WeatherCatV1.13B119,2013-02-24 20:35:00,
2013-02-24 15:40:00,43.1,29.8,29.79,NNW,340,2.0,6.0,59,0.00,,,0.03,WeatherCatV1.13B119,2013-02-24 20:40:00,
2013-02-24 15:45:00,42.9,30.0,29.80,West,277,0.0,2.0,60,0.00,,,0.03,WeatherCatV1.13B119,2013-02-24 20:45:00,
2013-02-24 15:50:00,42.9,30.0,29.80,WNW,284,2.0,4.0,60,0.00,,,0.03,WeatherCatV1.13B119,2013-02-24 20:50:00,
2013-02-24 15:55:00,42.8,29.5,29.80,NNW,338,1.0,7.0,59,0.00,,,0.03,WeatherCatV1.13B119,2013-02-24 20:55:00,
2013-02-24 16:00:00,42.5,29.2,29.81,West,263,2.0,7.0,59,0.00,,,0.03,WeatherCatV1.13B119,2013-02-24 21:00:00,
2013-02-24 16:05:00,42.2,28.9,29.81,North,356,1.0,10.0,59,0.00,,,0.03,WeatherCatV1.13B119,2013-02-24 21:05:00,
2013-02-24 16:10:00,42.0,29.1,29.81,North,350,5.0,8.0,60,0.00,,,0.03,WeatherCatV1.13B119,2013-02-24 21:10:00,
2013-02-24 16:15:00,41.9,29.4,29.81,North,350,5.0,5.0,61,0.00,,,0.03,WeatherCatV1.13B119,2013-02-24 21:15:00,
2013-02-24 16:20:00,41.7,29.7,29.82,NNW,348,4.0,4.0,62,0.00,,,0.03,WeatherCatV1.13B119,2013-02-24 21:20:00,
2013-02-24 16:25:00,41.4,29.0,29.82,NNW,343,1.0,9.0,61,0.00,,,0.03,WeatherCatV1.13B119,2013-02-24 21:25:00,
2013-02-24 16:30:00,41.1,28.7,29.83,NW,321,3.0,5.0,61,0.00,,,0.03,WeatherCatV1.13B119,2013-02-24 21:30:00,
2013-02-24 16:35:00,40.9,28.9,29.83,WNW,294,3.0,5.0,62,0.00,,,0.03,WeatherCatV1.13B119,2013-02-24 21:35:00,
2013-02-24 16:40:00,40.6,28.6,29.83,WNW,294,0.0,5.0,62,0.00,,,0.03,WeatherCatV1.13B119,2013-02-24 21:40:00,
2013-02-24 16:45:00,40.4,28.8,29.83,WNW,294,2.0,4.0,63,0.00,,,0.03,WeatherCatV1.13B119,2013-02-24 21:45:00,
2013-02-24 16:50:00,40.3,29.1,29.84,NW,319,3.0,3.0,64,0.00,,,0.03,WeatherCatV1.13B119,2013-02-24 21:50:00,
2013-02-24 16:55:00,40.1,28.9,29.84,NW,315,1.0,2.0,64,0.00,,,0.03,WeatherCatV1.13B119,2013-02-24 21:55:00,
2013-02-24 17:00:00,39.7,28.2,29.84,WSW,258,5.0,8.0,63,0.00,,,0.03,WeatherCatV1.13B119,2013-02-24 22:00:00,
2013-02-24 17:05:00,39.4,28.2,29.85,West,267,3.0,9.0,64,0.00,,,0.03,WeatherCatV1.13B119,2013-02-24 22:05:00,
2013-02-24 17:10:00,39.0,28.2,29.85,WSW,256,3.0,6.0,65,0.00,,,0.03,WeatherCatV1.13B119,2013-02-24 22:10:00,
2013-02-24 17:15:00,38.7,28.3,29.85,NW,317,5.0,6.0,66,0.00,,,0.03,WeatherCatV1.13B119,2013-02-24 22:15:00,
2013-02-24 17:20:00,38.5,28.1,29.85,NW,315,0.0,4.0,66,0.00,,,0.03,WeatherCatV1.13B119,2013-02-24 22:20:00,
2013-02-24 17:25:00,38.4,28.0,29.85,WSW,250,3.0,7.0,66,0.00,,,0.03,WeatherCatV1.13B119,2013-02-24 22:25:00,
2013-02-24 17:30:00,38.3,28.0,29.85,WSW,250,0.0,2.0,66,0.00,,,0.03,WeatherCatV1.13B119,2013-02-24 22:30:00,
2013-02-24 17:35:00,38.2,27.1,29.85,NNW,329,1.0,4.0,64,0.00,,,0.03,WeatherCatV1.13B119,2013-02-24 22:35:00,
2013-02-24 17:40:00,38.1,26.6,29.86,WNW,284,1.0,9.0,63,0.00,,,0.03,WeatherCatV1.13B119,2013-02-24 22:40:00,
2013-02-24 17:45:00,38.0,26.2,29.86,South,188,3.0,4.0,62,0.00,,,0.03,WeatherCatV1.13B119,2013-02-24 22:45:00,
2013-02-24 17:50:00,37.9,26.1,29.87,North,356,2.0,5.0,62,0.00,,,0.03,WeatherCatV1.13B119,2013-02-24 22:50:00,
2013-02-24 17:55:00,37.7,25.9,29.87,NW,316,0.0,4.0,62,0.00,,,0.03,WeatherCatV1.13B119,2013-02-24 22:55:00,
2013-02-24 18:00:00,37.7,25.9,29.87,North,7,2.0,5.0,62,0.00,,,0.03,WeatherCatV1.13B119,2013-02-24 23:00:00,
2013-02-24 18:05:00,37.6,25.8,29.88,NNE,17,2.0,5.0,62,0.00,,,0.03,WeatherCatV1.13B119,2013-02-24 23:05:00,
2013-02-24 18:10:00,37.5,25.7,29.88,WNW,298,2.0,3.0,62,0.00,,,0.03,WeatherCatV1.13B119,2013-02-24 23:10:00,
2013-02-24 18:15:00,37.5,25.7,29.88,NNW,346,2.0,5.0,62,0.00,,,0.03,WeatherCatV1.13B119,2013-02-24 23:15:00,
2013-02-24 18:20:00,37.5,25.3,29.89,NW,317,1.0,8.0,61,0.00,,,0.03,WeatherCatV1.13B119,2013-02-24 23:20:00,
2013-02-24 18:25:00,37.4,25.2,29.89,NNE,31,1.0,8.0,61,0.00,,,0.03,WeatherCatV1.13B119,2013-02-24 23:25:00,
2013-02-24 18:30:00,37.3,25.1,29.89,North,350,3.0,5.0,61,0.00,,,0.03,WeatherCatV1.13B119,2013-02-24 23:30:00,
2013-02-24 18:35:00,37.1,24.9,29.90,NNE,23,2.0,7.0,61,0.00,,,0.03,WeatherCatV1.13B119,2013-02-24 23:35:00,
2013-02-24 18:40:00,37.1,24.9,29.90,North,0,3.0,4.0,61,0.00,,,0.03,WeatherCatV1.13B119,2013-02-24 23:40:00,
2013-02-24 18:45:00,37.0,24.8,29.90,NNW,335,4.0,4.0,61,0.00,,,0.03,WeatherCatV1.13B119,2013-02-24 23:45:00,
2013-02-24 18:50:00,37.0,25.2,29.90,NW,325,1.0,4.0,62,0.00,,,0.03,WeatherCatV1.13B119,2013-02-24 23:50:00,
2013-02-24 18:55:00,37.0,25.2,29.91,NNW,339,2.0,2.0,62,0.00,,,0.03,WeatherCatV1.13B119,2013-02-24 23:55:00,
2013-02-24 19:00:00,36.9,25.1,29.91,NW,308,2.0,4.0,62,0.00,,,0.03,WeatherCatV1.13B119,2013-02-25 00:00:00,
2013-02-24 19:05:00,36.9,25.5,29.91,NNW,337,2.0,5.0,63,0.00,,,0.03,WeatherCatV1.13B119,2013-02-25 00:05:00,
2013-02-24 19:10:00,36.8,25.4,29.92,NW,313,2.0,5.0,63,0.00,,,0.03,WeatherCatV1.13B119,2013-02-25 00:10:00,
2013-02-24 19:15:00,36.7,25.3,29.92,WNW,294,2.0,4.0,63,0.00,,,0.03,WeatherCatV1.13B119,2013-02-25 00:15:00,
2013-02-24 19:20:00,36.6,25.2,29.92,NW,316,2.0,8.0,63,0.00,,,0.03,WeatherCatV1.13B119,2013-02-25 00:20:00,
2013-02-24 19:25:00,36.6,25.2,29.92,WSW,253,3.0,6.0,63,0.00,,,0.03,WeatherCatV1.13B119,2013-02-25 00:25:00,
2013-02-24 19:30:00,36.5,25.1,29.92,NNW,332,2.0,8.0,63,0.00,,,0.03,WeatherCatV1.13B119,2013-02-25 00:30:00,
2013-02-24 19:35:00,36.4,25.0,29.92,NNW,330,2.0,4.0,63,0.00,,,0.03,WeatherCatV1.13B119,2013-02-25 00:35:00,
2013-02-24 19:40:00,36.4,25.0,29.93,WNW,294,0.0,7.0,63,0.00,,,0.03,WeatherCatV1.13B119,2013-02-25 00:40:00,
2013-02-24 19:45:00,36.3,24.9,29.93,WNW,284,2.0,2.0,63,0.00,,,0.03,WeatherCatV1.13B119,2013-02-25 00:45:00,
2013-02-24 19:50:00,36.2,24.8,29.94,West,273,4.0,8.0,63,0.00,,,0.03,WeatherCatV1.13B119,2013-02-25 00:50:00,
2013-02-24 19:55:00,36.1,24.7,29.94,North,0,4.0,5.0,63,0.00,,,0.03,WeatherCatV1.13B119,2013-02-25 00:55:00,
2013-02-24 20:00:00,36.0,25.0,29.94,NNW,329,4.0,7.0,64,0.00,,,0.03,WeatherCatV1.13B119,2013-02-25 01:00:00,
2013-02-24 20:05:00,35.8,24.5,29.94,NNW,338,3.0,5.0,63,0.00,,,0.03,WeatherCatV1.13B119,2013-02-25 01:05:00,
2013-02-24 20:10:00,35.7,24.7,29.94,NNE,19,2.0,5.0,64,0.00,,,0.03,WeatherCatV1.13B119,2013-02-25 01:10:00,
2013-02-24 20:15:00,35.6,24.6,29.94,NNW,344,2.0,3.0,64,0.00,,,0.03,WeatherCatV1.13B119,2013-02-25 01:15:00,
2013-02-24 20:20:00,35.4,24.8,29.95,East,97,1.0,2.0,65,0.00,,,0.03,WeatherCatV1.13B119,2013-02-25 01:20:00,
2013-02-24 20:25:00,35.3,24.7,29.95,West,273,3.0,5.0,65,0.00,,,0.03,WeatherCatV1.13B119,2013-02-25 01:25:00,
2013-02-24 20:30:00,35.2,24.6,29.95,North,359,1.0,3.0,65,0.00,,,0.03,WeatherCatV1.13B119,2013-02-25 01:30:00,
2013-02-24 20:35:00,35.1,24.5,29.95,North,6,1.0,3.0,65,0.00,,,0.03,WeatherCatV1.13B119,2013-02-25 01:35:00,
2013-02-24 20:40:00,35.0,24.4,29.95,ENE,77,2.0,3.0,65,0.00,,,0.03,WeatherCatV1.13B119,2013-02-25 01:40:00,
2013-02-24 20:45:00,34.9,24.3,29.95,NNW,338,1.0,2.0,65,0.00,,,0.03,WeatherCatV1.13B119,2013-02-25 01:45:00,
2013-02-24 20:50:00,34.8,24.6,29.95,NW,317,1.0,1.0,66,0.00,,,0.03,WeatherCatV1.13B119,2013-02-25 01:50:00,
2013-02-24 20:55:00,34.7,24.5,29.96,North,6,0.0,3.0,66,0.00,,,0.03,WeatherCatV1.13B119,2013-02-25 01:55:00,
2013-02-24 21:00:00,34.7,24.5,29.96,North,0,1.0,3.0,66,0.00,,,0.03,WeatherCatV1.13B119,2013-02-25 02:00:00,
2013-02-24 21:05:00,34.6,24.4,29.96,North,5,3.0,5.0,66,0.00,,,0.03,WeatherCatV1.13B119,2013-02-25 02:05:00,
2013-02-24 21:10:00,34.6,24.4,29.96,North,0,1.0,7.0,66,0.00,,,0.03,WeatherCatV1.13B119,2013-02-25 02:10:00,
2013-02-24 21:15:00,34.5,24.3,29.96,North,353,5.0,5.0,66,0.00,,,0.03,WeatherCatV1.13B119,2013-02-25 02:15:00,
2013-02-24 21:20:00,34.5,24.0,29.96,North,358,3.0,4.0,65,0.00,,,0.03,WeatherCatV1.13B119,2013-02-25 02:20:00,
2013-02-24 21:25:00,34.4,23.9,29.96,NW,322,1.0,2.0,65,0.00,,,0.03,WeatherCatV1.13B119,2013-02-25 02:25:00,
2013-02-24 21:30:00,34.4,23.9,29.96,NNW,340,3.0,9.0,65,0.00,,,0.03,WeatherCatV1.13B119,2013-02-25 02:30:00,
2013-02-24 21:35:00,34.3,23.8,29.96,NNW,333,1.0,1.0,65,0.00,,,0.03,WeatherCatV1.13B119,2013-02-25 02:35:00,
2013-02-24 21:40:00,34.2,23.7,29.97,North,0,2.0,5.0,65,0.00,,,0.03,WeatherCatV1.13B119,2013-02-25 02:40:00,
2013-02-24 21:46:00,34.2,23.7,29.97,NNW,331,1.0,5.0,65,0.00,,,0.03,WeatherCatV1.13B119,2013-02-25 02:46:00,
2013-02-24 21:51:00,34.1,23.6,29.97,WNW,284,0.0,5.0,65,0.00,,,0.03,WeatherCatV1.13B119,2013-02-25 02:51:00,
2013-02-24 21:56:00,34.1,23.6,29.97,North,350,0.0,3.0,65,0.00,,,0.03,WeatherCatV1.13B119,2013-02-25 02:56:00,
2013-02-24 22:01:00,34.0,23.5,29.97,NW,304,0.0,2.0,65,0.00,,,0.03,WeatherCatV1.13B119,2013-02-25 03:01:00,
2013-02-24 22:06:00,34.0,23.5,29.97,North,356,0.0,4.0,65,0.00,,,0.03,WeatherCatV1.13B119,2013-02-25 03:06:00,
2013-02-24 22:11:00,33.9,23.4,29.97,NNW,342,1.0,3.0,65,0.00,,,0.03,WeatherCatV1.13B119,2013-02-25 03:11:00,
2013-02-24 22:16:00,33.8,23.3,29.97,North,352,1.0,4.0,65,0.00,,,0.03,WeatherCatV1.13B119,2013-02-25 03:16:00,
2013-02-24 22:21:00,33.8,23.3,29.97,NNW,331,0.0,2.0,65,0.00,,,0.03,WeatherCatV1.13B119,2013-02-25 03:21:00,
2013-02-24 22:26:00,33.7,23.6,29.97,North,6,1.0,4.0,66,0.00,,,0.03,WeatherCatV1.13B119,2013-02-25 03:26:00,
2013-02-24 22:31:00,33.6,23.5,29.97,NNW,327,1.0,4.0,66,0.00,,,0.03,WeatherCatV1.13B119,2013-02-25 03:31:00,
2013-02-24 22:36:00,33.5,23.4,29.97,North,352,3.0,4.0,66,0.00,,,0.03,WeatherCatV1.13B119,2013-02-25 03:36:00,
2013-02-24 22:41:00,33.5,23.4,29.97,NNW,340,1.0,5.0,66,0.00,,,0.03,WeatherCatV1.13B119,2013-02-25 03:41:00,
2013-02-24 22:46:00,33.5,23.4,29.98,North,350,0.0,1.0,66,0.00,,,0.03,WeatherCatV1.13B119,2013-02-25 03:46:00,
2013-02-24 22:51:00,33.4,23.3,29.98,NNW,332,3.0,3.0,66,0.00,,,0.03,WeatherCatV1.13B119,2013-02-25 03:51:00,
2013-02-24 22:56:00,33.3,23.5,29.98,WNW,298,1.0,3.0,67,0.00,,,0.03,WeatherCatV1.13B119,2013-02-25 03:56:00,
2013-02-24 23:01:00,33.3,23.5,29.98,NNW,342,0.0,4.0,67,0.00,,,0.03,WeatherCatV1.13B119,2013-02-25 04:01:00,
2013-02-24 23:06:00,33.2,23.4,29.98,NNW,341,0.0,2.0,67,0.00,,,0.03,WeatherCatV1.13B119,2013-02-25 04:06:00,
2013-02-24 23:11:00,33.1,23.7,29.98,East,95,2.0,2.0,68,0.00,,,0.03,WeatherCatV1.13B119,2013-02-25 04:11:00,
2013-02-24 23:16:00,33.1,23.4,29.98,NNW,342,0.0,3.0,67,0.00,,,0.03,WeatherCatV1.13B119,2013-02-25 04:16:00,
2013-02-24 23:21:00,33.1,23.4,29.98,NNW,343,0.0,2.0,67,0.00,,,0.03,WeatherCatV1.13B119,2013-02-25 04:21:00,
2013-02-24 23:26:00,33.0,23.6,29.98,NNW,344,0.0,1.0,68,0.00,,,0.03,WeatherCatV1.13B119,2013-02-25 04:26:00,
2013-02-24 23:31:00,33.0,23.6,29.98,North,350,1.0,2.0,68,0.00,,,0.03,WeatherCatV1.13B119,2013-02-25 04:31:00,
2013-02-24 23:36:00,33.0,23.6,29.98,North,350,1.0,1.0,68,0.00,,,0.03,WeatherCatV1.13B119,2013-02-25 04:36:00,
2013-02-24 23:41:00,32.9,23.5,29.98,North,350,0.0,4.0,68,0.00,,,0.03,WeatherCatV1.13B119,2013-02-25 04:41:00,
2013-02-24 23:46:00,32.9,23.5,29.98,North,350,1.0,3.0,68,0.00,,,0.03,WeatherCatV1.13B119,2013-02-25 04:46:00,
2013-02-24 23:51:00,32.9,23.5,29.98,NW,322,2.0,2.0,68,0.00,,,0.03,WeatherCatV1.13B119,2013-02-25 04:51:00,
2013-02-24 23:56:00,32.9,23.5,29.99,North,358,0.0,2.0,68,0.00,,,0.03,WeatherCatV1.13B119,2013-02-25 04:56:00,